Weather History for Ardmore Downtown, OK

Change the Weather History Date:

Saturday, September 29, 2012

  Actual Average (KADM) Record (KADM)
Temperature  
Mean Temperature 66 °F -  
Max Temperature 71 °F 79 °F 98 °F (1998)
Min Temperature 62 °F 57 °F 44 °F (2006)
Cooling Degree Days 2    
Growing Degree Days 16 (Base 50)    
Moisture  
Dew Point 65 °F    
Average Humidity 92    
Maximum Humidity 100    
Minimum Humidity 88    
Precipitation  
Precipitation 0.00 in - - ()
Sea Level Pressure  
Sea Level Pressure 29.99 in    
Wind  
Wind Speed 2 mph (NE)    
Max Wind Speed 13 mph    
Max Gust Speed 17 mph    
Visibility 7 miles    
Events Rain    
Averages and records for this station are not official NWS values.
T = Trace of Precipitation, MM = Missing Value Source: NWS Daily Summary

Daily Weather History Graph

Daily Weather History Graph

Search for Another Location

Airport:

Trip Planner

Search our weather history database for the weather conditions in past years. The results will help you decide how hot, cold, wet, or windy it might be!

Date:

Astronomy

Sep. 29, 2012 Rise Set
Actual Time 7:21 AM CDT 7:14 PM CDT
Civil Twilight 6:56 AM CDT 7:39 PM CDT
Nautical Twilight 6:27 AM CDT 8:08 PM CDT
Astronomical Twilight 5:58 AM CDT 8:37 PM CDT
Moon 6:50 PM CDT (9/29) 6:53 AM CDT (9/29)
Length of Visible Light 12h 42m
Length of Day
11h 52m
Full, 100% of the Moon is Illuminated
Sep 29
Full
Sep 29
Full
Oct 8
Last Quarter
Oct 15
New
Oct 21
First Quarter

Hourly Weather History & Observations

Time (CDT) Temp. Dew Point Humidity Pressure Visibility Wind Dir Wind Speed Gust Speed Precip Events Conditions
12:15 AM 71.6 °F 68.0 °F 88% 30.04 in 10.0 mi Calm Calm - N/A   Light Drizzle
12:35 AM 71.6 °F 68.0 °F 88% 30.04 in 10.0 mi Calm Calm - N/A   Overcast
12:55 AM 71.6 °F 68.0 °F 88% 30.04 in 10.0 mi Calm Calm - N/A   Overcast
1:15 AM 71.6 °F 68.0 °F 88% 30.04 in 10.0 mi Calm Calm - N/A Rain Light Rain
1:35 AM 69.8 °F 68.0 °F 94% 30.04 in 7.0 mi Calm Calm - N/A Rain Rain
1:55 AM 69.8 °F 68.0 °F 94% 30.03 in 7.0 mi Calm Calm - N/A   Light Drizzle
2:15 AM 69.8 °F 68.0 °F 94% 30.03 in 10.0 mi Calm Calm - N/A Rain Rain
2:35 AM 69.8 °F 68.0 °F 94% 30.03 in 10.0 mi Calm Calm - N/A   Light Drizzle
2:55 AM 69.8 °F 68.0 °F 94% 30.02 in 7.0 mi Calm Calm - N/A Rain Light Rain
3:15 AM 69.8 °F 68.0 °F 94% 30.02 in 7.0 mi Calm Calm - N/A   Overcast
3:35 AM 69.8 °F 66.2 °F 88% 30.01 in 7.0 mi Calm Calm - N/A   Light Drizzle
3:55 AM 69.8 °F 66.2 °F 88% 30.00 in 7.0 mi Calm Calm - N/A   Overcast
4:15 AM 69.8 °F 66.2 °F 88% 30.00 in 7.0 mi Calm Calm - N/A   Overcast
4:35 AM 69.8 °F 68.0 °F 94% 29.99 in 5.0 mi NNE 3.5 mph - N/A   Overcast
4:55 AM 69.8 °F 68.0 °F 94% 29.99 in 5.0 mi Calm Calm - N/A   Scattered Clouds
5:15 AM 69.8 °F 68.0 °F 94% 29.99 in 5.0 mi Calm Calm - N/A   Mostly Cloudy
5:35 AM 69.8 °F 68.0 °F 94% 29.99 in 5.0 mi ESE 3.5 mph - N/A Rain Light Rain
5:55 AM 68.0 °F 66.2 °F 94% 29.99 in 4.0 mi Calm Calm - N/A Rain Light Rain
6:15 AM 68.0 °F 66.2 °F 94% 29.99 in 5.0 mi NE 3.5 mph - N/A Rain Light Rain
6:35 AM 68.0 °F 66.2 °F 94% 29.99 in 7.0 mi NE 3.5 mph - N/A   Light Drizzle
6:55 AM 68.0 °F 66.2 °F 94% 29.99 in 7.0 mi NNE 3.5 mph - N/A   Light Drizzle
7:15 AM 68.0 °F 66.2 °F 94% 30.00 in 7.0 mi ENE 3.5 mph - N/A   Clear
7:35 AM 68.0 °F 66.2 °F 94% 30.00 in 7.0 mi NE 3.5 mph - N/A   Clear
7:55 AM 68.0 °F 66.2 °F 94% 30.00 in 5.0 mi Calm Calm - N/A   Light Drizzle
8:15 AM 68.0 °F 66.2 °F 94% 30.01 in 5.0 mi NE 3.5 mph - N/A Rain Rain
8:35 AM 69.8 °F 66.2 °F 88% 30.01 in 5.0 mi NE 3.5 mph - N/A Rain Light Rain
8:55 AM 69.8 °F 66.2 °F 88% 30.02 in 5.0 mi NE 3.5 mph - N/A   Scattered Clouds
9:15 AM 69.8 °F 66.2 °F 88% 30.02 in 5.0 mi Calm Calm - N/A   Light Drizzle
9:35 AM 69.8 °F 66.2 °F 88% 30.02 in 7.0 mi ENE 3.5 mph - N/A Rain Light Rain
9:55 AM 69.8 °F 68.0 °F 94% 30.02 in 7.0 mi NE 3.5 mph - N/A   Light Drizzle
10:15 AM 71.6 °F 68.0 °F 88% 30.01 in 7.0 mi NE 4.6 mph - N/A   Light Drizzle
10:35 AM 71.6 °F 68.0 °F 88% 30.01 in 10.0 mi NE 5.8 mph - N/A   Scattered Clouds
10:55 AM 71.6 °F 68.0 °F 88% 30.01 in 7.0 mi ENE 5.8 mph - N/A   Mostly Cloudy
11:15 AM 71.6 °F 68.0 °F 88% 30.00 in 7.0 mi ENE 6.9 mph - N/A   Light Drizzle
11:35 AM 71.6 °F 68.0 °F 88% 30.00 in 7.0 mi East 4.6 mph - N/A Rain Light Rain
12:15 PM 71.6 °F 68.0 °F 88% 29.99 in 7.0 mi ENE 5.8 mph - N/A   Light Drizzle
12:35 PM 71.6 °F 68.0 °F 88% 29.99 in 7.0 mi ENE 4.6 mph - N/A   Light Drizzle
12:55 PM 71.6 °F 68.0 °F 88% 29.98 in 7.0 mi East 5.8 mph - N/A Rain Light Rain
1:15 PM 71.6 °F 68.0 °F 88% 29.98 in 10.0 mi East 4.6 mph - N/A Rain Light Rain
1:35 PM 71.6 °F 68.0 °F 88% 29.97 in 7.0 mi East 5.8 mph - N/A Rain Light Rain
1:55 PM 68.0 °F 64.4 °F 88% 29.97 in 7.0 mi NE 12.7 mph 17.3 mph N/A Rain Light Rain
2:15 PM 68.0 °F 64.4 °F 88% 29.97 in 7.0 mi East 4.6 mph - N/A Rain Light Rain
2:35 PM 66.2 °F 64.4 °F 94% 29.96 in 5.0 mi NE 8.1 mph - N/A Rain Light Rain
2:55 PM 66.2 °F 64.4 °F 94% 29.96 in 7.0 mi NNE 6.9 mph - N/A Rain Light Rain
3:15 PM 66.2 °F 64.4 °F 94% 29.95 in 7.0 mi NNE 6.9 mph - N/A Rain Light Rain
3:35 PM 66.2 °F 64.4 °F 94% 29.96 in 7.0 mi SSE 5.8 mph - N/A Rain Light Rain
3:55 PM 64.4 °F 62.6 °F 94% 29.95 in 7.0 mi SSE 3.5 mph - N/A Rain Light Rain
4:15 PM 64.4 °F 62.6 °F 94% 29.95 in 7.0 mi ESE 5.8 mph - N/A Rain Light Rain
4:35 PM 64.4 °F 62.6 °F 94% 29.95 in 5.0 mi Calm Calm - N/A Rain Light Rain
4:55 PM 64.4 °F 62.6 °F 94% 29.95 in 5.0 mi Calm Calm - N/A Rain Rain
5:15 PM 64.4 °F 62.6 °F 94% 29.94 in 7.0 mi Calm Calm - N/A Rain Light Rain
5:35 PM 64.4 °F 62.6 °F 94% 29.94 in 4.0 mi NNE 4.6 mph - N/A Rain Light Rain
5:55 PM 64.4 °F 62.6 °F 94% 29.94 in 7.0 mi NNE 3.5 mph - N/A Rain Light Rain
6:15 PM 64.4 °F 60.8 °F 88% 29.94 in 7.0 mi NNE 3.5 mph - N/A Rain Light Rain
6:35 PM 64.4 °F 60.8 °F 88% 29.94 in 7.0 mi NNE 3.5 mph - N/A Rain Light Rain
6:55 PM 62.6 °F 60.8 °F 94% 29.95 in 7.0 mi NNE 4.6 mph - N/A Rain Light Rain
7:15 PM 64.4 °F 60.8 °F 88% 29.95 in 7.0 mi NNE 4.6 mph - N/A Rain Light Rain
7:35 PM 62.6 °F 62.6 °F 100% 29.96 in 7.0 mi NNE 4.6 mph - N/A Rain Light Rain
7:55 PM 62.6 °F 62.6 °F 100% 29.96 in 7.0 mi NNE 4.6 mph - N/A Rain Light Rain
8:15 PM 62.6 °F 60.8 °F 94% 29.96 in 7.0 mi Calm Calm - N/A Rain Light Rain
8:35 PM 64.4 °F 62.6 °F 94% 29.96 in 7.0 mi NE 3.5 mph - N/A Rain Light Rain
8:55 PM 62.6 °F 62.6 °F 100% 29.97 in 7.0 mi NE 3.5 mph - N/A Rain Light Rain
9:15 PM 64.4 °F 62.6 °F 94% 29.97 in 7.0 mi Calm Calm - N/A Rain Light Rain
9:55 PM 64.4 °F 62.6 °F 94% 29.97 in 7.0 mi Calm Calm - N/A Rain Light Rain
10:15 PM 64.4 °F 62.6 °F 94% 29.97 in 10.0 mi Calm Calm - N/A Rain Rain
10:35 PM 64.4 °F 62.6 °F 94% 29.97 in 10.0 mi Calm Calm - N/A Rain Rain
10:55 PM 64.4 °F 62.6 °F 94% 29.97 in 10.0 mi Calm Calm - N/A Rain Light Rain
11:15 PM 64.4 °F 62.6 °F 94% 29.97 in 7.0 mi Calm Calm - N/A Rain Light Rain
11:35 PM 64.4 °F 62.6 °F 94% 29.96 in 10.0 mi Calm Calm - N/A   Overcast
11:55 PM 64.4 °F 62.6 °F 94% 29.96 in 10.0 mi Calm Calm - N/A   Overcast